376P/LONEOS (2019)

Japanese version
Home page
Updated on June 14, 2021

---------------------------------------------------------------------

* Profile

Designation 376P/2018 X1
Recovery Date December 4, 2018
Magnitude 20.6 mag
Recoverer Erwin Schwab (Egelsbach, Germany), D. Abreu (European Space Agency's Optical Ground Station, Tenerife)

* Pictures

* Orbital Elements

Epoch 2019 Oct. 4.0 TT = JDT 2458760.5
T 2019 Sept. 29.24079 TT                                Rudenko
q   2.8308750            (2000.0)            P               Q
n   0.06943138     Peri.  285.40484     -0.49543920     +0.86851750
a   5.8627157      Node   314.88669     -0.78877161     -0.45692825
e   0.5171393      Incl.    1.19234     -0.36383973     -0.19207793
P  14.2
From 409 observations 2005 Apr. 2-2020 Sept. 7, mean residual 0".8.

* Magnitudes Graph

        m1 = 11.5 + 5 log d + 10.0 log r

---------------------------------------------------------------------

The orbital elements are published on M.P.E.C. 2020-S188.
The magnitudes graphs are made with Comet for Windows.

---------------------------------------------------------------------

Copyright(C) Seiichi Yoshida (comet@aerith.net). All rights reserved.